KC0VVH Weather Reports


time (UTC)temp
C
wind
direction
speed
KPH
gust
KPH
rain 1hr
cm
rain 24hr
cm
rain mn
cm
humidity
%
barometer
mb
20260507094515 3 0 0.0 0.0 0.00 0.15 0.00 48 1017.9
20260507093615 4 0 0.0 0.0 0.00 0.15 0.00 47 1017.9
20260507092703 4 0 0.0 0.0 0.00 0.15 0.00 46 1017.9
20260507091803 5 0 0.0 0.0 0.00 0.15 0.00 44 1017.9
20260507090915 5 0 0.0 0.0 0.00 0.15 0.00 44 1017.9
20260507090015 5 0 0.0 0.0 0.00 0.15 0.00 45 1017.9
20260507085403 5 0 0.0 0.0 0.00 0.15 0.00 45 1017.9
20260507084524 4 0 0.0 0.0 0.00 0.15 0.00 46 1017.9
20260507083615 4 0 0.0 0.0 0.00 0.15 0.00 46 1017.9
20260507082724 5 0 0.0 0.0 0.00 0.15 0.00 46 1017.9
20260507081815 5 0 0.0 0.0 0.00 0.15 0.00 47 1017.9
20260507080915 5 0 0.0 0.0 0.00 0.15 0.00 47 1017.9
20260507080024 4 0 0.0 0.0 0.00 0.15 0.00 48 1017.9
20260507075403 4 0 0.0 0.0 0.00 0.15 0.00 47 1017.9
20260507074515 5 0 0.0 0.0 0.00 0.15 0.00 47 1017.9
20260507073615 5 0 0.0 0.0 0.00 0.15 0.00 45 1017.9
20260507072715 5 0 0.0 0.0 0.00 0.15 0.00 43 1017.9
20260507071815 6 0 0.0 0.0 0.00 0.15 0.00 43 1017.9
20260507070903 6 0 0.0 0.0 0.00 0.15 0.00 40 1017.9
20260507070015 7 0 0.0 0.0 0.00 0.15 0.00 38 1017.9
20260507065415 7 0 0.0 0.0 0.00 0.15 0.00 35 1017.9
20260507064503 8 0 0.0 0.0 0.00 0.15 0.00 33 1017.9
20260507063615 9 0 0.0 0.0 0.00 0.15 0.00 31 1017.9
20260507062715 10 238 0.0 6.4 0.00 0.15 0.00 27 1017.9
20260507061815 10 195 0.0 11.3 0.00 0.15 0.00 27 1017.9
20260507060903 10 188 0.0 6.4 0.00 0.15 0.00 26 1017.9
20260507060015 10 187 0.0 1.6 0.00 0.15 0.00 26 1017.9
20260507055403 10 187 0.0 8.0 0.00 0.15 0.15 26 1017.9
20260507054503 10 188 3.2 9.7 0.00 0.15 0.15 26 1017.9
20260507053615 10 189 3.2 9.7 0.00 0.15 0.15 26 1017.9
20260507052715 10 206 3.2 11.3 0.00 0.15 0.15 27 1017.9
20260507051815 10 214 1.6 11.3 0.00 0.15 0.15 28 1017.9
20260507050915 9 226 0.0 6.4 0.00 0.15 0.15 28 1017.9
20260507050003 8 232 0.0 4.8 0.00 0.15 0.15 31 1017.9
20260507045403 8 0 0.0 0.0 0.00 0.15 0.15 32 1017.9
20260507044503 8 0 0.0 0.0 0.00 0.15 0.15 33 1017.9
20260507043636 8 236 0.0 4.8 0.00 0.15 0.15 33 1017.9
20260507042703 9 0 0.0 0.0 0.00 0.15 0.15 33 1017.9
20260507041815 10 246 0.0 4.8 0.00 0.15 0.15 28 1017.9
20260507040915 10 272 0.0 6.4 0.00 0.15 0.15 26 1017.9
20260507040003 10 0 0.0 0.0 0.00 0.15 0.15 26 1017.9
20260507035415 10 0 0.0 0.0 0.00 0.15 0.15 26 1017.9
20260507034515 10 0 0.0 0.0 0.00 0.15 0.15 27 1017.9
20260507033615 11 0 0.0 0.0 0.00 0.15 0.15 26 1017.9
20260507032715 10 0 0.0 0.0 0.00 0.15 0.15 26 1017.9
20260507031815 10 0 0.0 0.0 0.00 0.15 0.15 26 1017.9
20260507030915 11 0 0.0 0.0 0.00 0.15 0.15 26 1017.9
20260507030015 11 0 0.0 0.0 0.00 0.15 0.15 26 1017.9
20260507025403 11 0 0.0 0.0 0.00 0.15 0.15 26 1017.9
20260507024503 11 0 0.0 0.0 0.00 0.15 0.15 26 1017.9
20260507023615 11 0 0.0 0.0 0.00 0.15 0.15 25 1017.9
20260507022715 11 0 0.0 0.0 0.00 0.15 0.15 25 1017.9
20260507021803 12 0 0.0 0.0 0.00 0.15 0.15 25 1017.9
20260507020903 12 0 0.0 0.0 0.00 0.15 0.15 24 1017.9
20260507020003 12 0 0.0 0.0 0.00 0.15 0.15 23 1017.9
20260507015415 12 0 0.0 0.0 0.00 0.15 0.15 23 1017.9
20260507014503 13 15 0.0 3.2 0.00 0.15 0.15 22 1017.9
20260507013624 13 323 1.6 8.0 0.00 0.15 0.15 22 1017.9
20260507012715 13 301 1.6 6.4 0.00 0.15 0.15 21 1017.9
20260507011815 14 349 0.0 6.4 0.00 0.15 0.15 20 1017.9
20260507010924 14 349 0.0 6.4 0.00 0.15 0.15 20 1017.9
20260507010015 15 350 0.0 4.8 0.00 0.15 0.15 20 1017.9
20260507005415 15 350 0.0 4.8 0.00 0.15 0.15 20 1017.9
20260507004515 15 339 1.6 12.9 0.00 0.15 0.15 18 1017.9
20260507003615 15 332 1.6 9.7 0.00 0.15 0.15 18 1017.9
20260507002736 16 315 0.0 4.8 0.00 0.15 0.15 18 1017.9
20260507001824 16 333 1.6 9.7 0.00 0.15 0.15 18 1017.9
20260507000903 15 283 0.0 9.7 0.00 0.15 0.15 18 1017.9
20260507000015 16 290 0.0 4.8 0.00 0.15 0.15 18 1017.9
20260506235403 15 311 1.6 9.7 0.00 0.15 0.15 18 1017.9
20260506234503 15 248 3.2 17.7 0.00 0.15 0.15 18 1017.9
20260506233636 16 12 3.2 24.1 0.00 0.15 0.15 19 1017.9
20260506232736 16 3 1.6 12.9 0.00 0.15 0.15 19 1017.9
20260506231803 15 239 0.0 4.8 0.00 0.15 0.15 19 1017.9
20260506230915 16 312 1.6 11.3 0.00 0.15 0.15 18 1017.9
20260506230003 15 19 0.0 4.8 0.00 0.15 0.15 21 1017.9
20260506225425 15 20 0.0 4.8 0.00 0.15 0.15 19 1017.9
20260506224515 15 330 3.2 35.4 0.00 0.15 0.15 20 1017.9
20260506223615 16 15 1.6 9.7 0.00 0.15 0.15 20 1017.9
20260506222703 16 353 1.6 11.3 0.00 0.15 0.15 21 1017.9
20260506221815 15 306 3.2 14.5 0.00 0.15 0.15 21 1017.9
20260506220936 15 332 1.6 14.5 0.00 0.15 0.15 22 1017.9
20260506220015 15 27 1.6 14.5 0.00 0.15 0.15 21 1017.9
20260506215415 15 10 3.2 17.7 0.00 0.15 0.15 22 1017.9
20260506214515 15 1 3.2 12.9 0.00 0.15 0.15 24 1017.9
20260506213603 15 273 1.6 11.3 0.00 0.15 0.15 24 1017.9
20260506212715 15 332 4.8 14.5 0.00 0.15 0.15 22 1017.9
20260506211815 15 17 1.6 12.9 0.00 0.15 0.15 24 1017.9
20260506210915 14 46 3.2 11.3 0.00 0.15 0.15 24 1017.9
20260506210003 15 12 4.8 16.1 0.00 0.15 0.15 24 1017.9
20260506205415 14 11 3.2 16.1 0.00 0.15 0.15 25 1017.9
20260506204515 14 9 3.2 16.1 0.00 0.15 0.15 23 1017.9
20260506203615 13 14 1.6 12.9 0.00 0.15 0.15 25 1017.9
20260506202736 13 359 3.2 17.7 0.00 0.15 0.15 25 1017.9
20260506201803 13 21 1.6 11.3 0.00 0.15 0.15 22 1017.9
20260506200903 14 34 3.2 11.3 0.00 0.15 0.15 24 1017.9
20260506200015 14 22 1.6 9.7 0.00 0.15 0.15 26 1017.9
20260506195415 13 35 1.6 14.5 0.00 0.15 0.15 24 1017.9
20260506194536 14 31 3.2 19.3 0.00 0.15 0.15 24 1017.9
20260506193603 14 18 6.4 20.9 0.00 0.15 0.15 24 1017.9
20260506192715 13 45 9.7 24.1 0.00 0.15 0.15 25 1017.9
20260506191815 14 15 6.4 20.9 0.00 0.15 0.15 25 1017.9
20260506190924 14 7 9.7 20.9 0.00 0.15 0.15 22 1017.9
20260506190015 13 11 6.4 24.1 0.00 0.15 0.15 24 1017.9
20260506185415 14 343 1.6 14.5 0.00 0.15 0.15 25 1017.9
20260506184515 13 357 3.2 20.9 0.00 0.15 0.15 24 1017.9
20260506183615 13 11 4.8 19.3 0.00 0.15 0.15 23 1017.9
20260506182703 13 18 3.2 19.3 0.00 0.15 0.15 26 1017.9
20260506181815 13 15 4.8 20.9 0.00 0.15 0.15 28 1017.9
20260506180915 13 38 6.4 16.1 0.00 0.15 0.15 28 1017.9
20260506180015 12 19 4.8 20.9 0.00 0.15 0.15 29 1017.9
20260506175403 12 13 4.8 20.9 0.00 0.15 0.15 31 1017.9
20260506174515 12 23 4.8 14.5 0.00 0.15 0.15 32 1017.9
20260506173615 12 37 6.4 16.1 0.00 0.15 0.15 29 1017.9
20260506172715 12 21 6.4 16.1 0.00 0.15 0.15 29 1017.9
20260506171803 12 18 4.8 17.7 0.00 0.15 0.15 29 1017.9
20260506170915 12 6 6.4 22.5 0.00 0.15 0.15 33 1017.9
20260506170003 12 3 4.8 20.9 0.00 0.15 0.15 32 1017.9
20260506165415 12 345 4.8 20.9 0.00 0.15 0.15 33 1017.9
20260506164515 12 13 3.2 17.7 0.00 0.15 0.15 35 1017.9
20260506163615 11 273 1.6 11.3 0.00 0.15 0.15 47 1017.9
20260506162715 11 350 0.0 6.4 0.00 0.15 0.15 47 1017.9
20260506161815 11 307 0.0 6.4 0.00 0.15 0.15 47 1017.9
20260506160924 11 360 0.0 3.2 0.00 0.15 0.15 50 1017.9
20260506160015 10 0 0.0 0.0 0.00 0.15 0.15 55 1017.9
20260506155415 9 360 0.0 4.8 0.00 0.15 0.15 59 1017.9
20260506154524 8 0 0.0 1.6 0.00 0.15 0.15 60 1017.9
20260506153615 8 354 0.0 6.4 0.00 0.15 0.15 63 1017.9
20260506152703 7 355 0.0 9.7 0.00 0.15 0.15 59 1017.9
20260506151815 7 355 0.0 6.4 0.00 0.15 0.15 63 1017.9
20260506150915 7 355 1.6 12.9 0.00 0.15 0.15 64 1017.9
20260506150015 7 3 1.6 12.9 0.00 0.15 0.15 68 1017.9
20260506145403 6 355 0.0 6.4 0.00 0.15 0.15 70 1017.9
20260506144515 6 356 0.0 4.8 0.00 0.15 0.15 73 1017.9
20260506143615 6 0 0.0 0.0 0.00 0.15 0.15 76 1017.9
20260506142724 6 0 0.0 0.0 0.00 0.15 0.15 75 1017.9
20260506141803 6 0 0.0 0.0 0.00 0.15 0.15 76 1017.9
20260506140915 6 0 0.0 0.0 0.00 0.15 0.15 76 1017.9
20260506140015 6 0 0.0 0.0 0.00 0.15 0.15 76 1017.9
20260506135415 6 0 0.0 0.0 0.03 0.15 0.15 78 1017.9
20260506134503 5 0 0.0 0.0 0.03 0.15 0.15 80 1017.9
20260506133615 5 0 0.0 0.0 0.03 0.15 0.15 78 1017.9
20260506132736 5 0 0.0 0.0 0.05 0.15 0.15 78 1017.9
20260506131815 5 224 0.0 6.4 0.10 0.15 0.15 77 1017.9
20260506130936 5 224 0.0 6.4 0.13 0.15 0.15 78 1017.9
20260506130015 5 223 0.0 3.2 0.13 0.15 0.15 78 1017.9
20260506125403 5 223 1.6 12.9 0.13 0.13 0.13 77 1017.9
20260506124503 5 231 1.6 12.9 0.13 0.13 0.13 78 1017.9
20260506123636 5 261 6.4 19.3 0.13 0.13 0.13 76 1017.9
20260506122715 6 285 4.8 24.1 0.10 0.10 0.10 75 1017.9
20260506121815 6 285 4.8 20.9 0.05 0.05 0.08 74 1017.9
20260506120936 6 284 9.7 27.4 0.03 0.03 0.03 72 1017.9
20260506120015 7 288 12.9 32.2 0.03 0.03 0.03 68 1017.9
20260506115436 8 299 6.4 35.4 0.00 0.00 0.00 66 1017.9
20260506114536 9 292 8.0 35.4 0.00 0.00 0.00 58 1017.9
20260506113615 10 274 3.2 16.1 0.00 0.00 0.00 55 1017.9
20260506112736 10 283 1.6 14.5 0.00 0.00 0.00 53 1017.9
20260506111803 9 295 1.6 14.5 0.00 0.00 0.00 54 1017.9
20260506110915 9 317 1.6 16.1 0.00 0.00 0.00 56 1017.9
20260506110015 8 232 0.0 3.2 0.00 0.00 0.00 57 1017.9
20260506105415 8 0 0.0 0.0 0.00 0.00 0.00 58 1017.9
20260506104503 8 0 0.0 0.0 0.00 0.00 0.00 58 1017.9
20260506103636 8 0 0.0 0.0 0.00 0.00 0.00 59 1017.9
20260506102715 8 0 0.0 0.0 0.00 0.00 0.00 59 1017.9
20260506101803 9 0 0.0 0.0 0.00 0.00 0.00 59 1017.9
20260506100936 10 0 0.0 0.0 0.00 0.00 0.00 58 1017.9
20260506100015 10 0 0.0 0.0 0.00 0.00 0.00 55 1017.9
20260506095436 10 0 0.0 0.0 0.00 0.00 0.00 53 1017.9